When you browse on this site, cookies collect data to enhance your experience and personalize the content and advertising you see.
Visit our Privacy Policy to learn more. By continuing to use the site, you agree to this use of cookies and data.
  • In Czech Republic
  • List of Countries
  • For 7 days
  • Water Temperature
  • Weather Map
  • Weather Widgets
  • user-avatar
    Login

    Hourly Weather San Luis

    Today, 21 January, Tuesday

    Time Temperature Precipitation Wind Pressure Humidity
    00:00 +28°C° 0.2 mm 5 mps 696 mmHg 67%
    01:00 +27°C° 0.2 mm 5 mps 696 mmHg 73%
    02:00 +26°C° 0.2 mm 5 mps 697 mmHg 78%
    03:00 +25°C° 0.1 mm 5 mps 697 mmHg 79%
    04:00 +25°C° 0.1 mm 5 mps 696 mmHg 81%
    05:00 +23°C° 0.1 mm 4 mps 696 mmHg 82%
    06:00 +26°C° 0 mm 4 mps 697 mmHg 74%
    07:00 +28°C° 0 mm 3 mps 698 mmHg 65%
    08:00 +30°C° 0 mm 2 mps 698 mmHg 56%
    09:00 +31°C° 0 mm 3 mps 698 mmHg 52%
    10:00 +33°C° 0 mm 4 mps 698 mmHg 47%
    11:00 +35°C° 0 mm 6 mps 698 mmHg 42%
    12:00 +35°C° 0 mm 5 mps 698 mmHg 42%
    13:00 +36°C° 0 mm 5 mps 697 mmHg 41%
    14:00 +36°C° 0 mm 5 mps 697 mmHg 40%
    15:00 +36°C° 0 mm 5 mps 696 mmHg 38%
    16:00 +38°C° 0 mm 6 mps 696 mmHg 35%
    17:00 +38°C° 0 mm 6 mps 696 mmHg 32%
    18:00 +35°C° 0 mm 6 mps 696 mmHg 35%
    19:00 +34°C° 0 mm 6 mps 696 mmHg 37%
    20:00 +32°C° 0 mm 5 mps 696 mmHg 40%
    21:00 +30°C° 0 mm 5 mps 696 mmHg 45%
    22:00 +29°C° 0 mm 5 mps 697 mmHg 50%
    23:00 +28°C° 0 mm 5 mps 697 mmHg 55%

    Tomorrow, 22 January, Wednesday

    Time Temperature Precipitation Wind Pressure Humidity
    00:00 +28°C° 0 mm 5 mps 697 mmHg 56%
    01:00 +28°C° 0 mm 4 mps 697 mmHg 58%
    02:00 +28°C° 0 mm 4 mps 697 mmHg 59%
    03:00 +27°C° 0 mm 4 mps 697 mmHg 60%
    04:00 +26°C° 0 mm 3 mps 697 mmHg 61%
    05:00 +26°C° 0 mm 3 mps 697 mmHg 62%
    06:00 +27°C° 0 mm 3 mps 698 mmHg 58%
    07:00 +28°C° 0 mm 2 mps 698 mmHg 55%
    08:00 +30°C° 0 mm 2 mps 699 mmHg 51%
    09:00 +31°C° 0 mm 2 mps 699 mmHg 44%
    10:00 +34°C° 0 mm 2 mps 699 mmHg 37%
    11:00 +36°C° 0 mm 2 mps 699 mmHg 29%
    12:00 +37°C° 0 mm 2 mps 699 mmHg 27%
    13:00 +38°C° 0 mm 2 mps 698 mmHg 24%
    14:00 +39°C° 0 mm 2 mps 698 mmHg 22%
    15:00 +39°C° 0 mm 3 mps 697 mmHg 23%
    16:00 +39°C° 0 mm 3 mps 697 mmHg 23%
    17:00 +38°C° 0 mm 3 mps 696 mmHg 24%
    18:00 +37°C° 0 mm 4 mps 696 mmHg 29%
    19:00 +35°C° 0 mm 4 mps 696 mmHg 33%
    20:00 +33°C° 0 mm 5 mps 696 mmHg 38%
    21:00 +32°C° 0 mm 5 mps 696 mmHg 41%
    22:00 +30°C° 0 mm 5 mps 696 mmHg 44%
    23:00 +30°C° 0 mm 6 mps 697 mmHg 47%

    Day after tomorrow, 23 January, Thursday

    Time Temperature Precipitation Wind Pressure Humidity
    00:00 +29°C° 0 mm 6 mps 696 mmHg 47%
    01:00 +29°C° 0 mm 7 mps 696 mmHg 47%
    02:00 +29°C° 0 mm 8 mps 696 mmHg 47%
    03:00 +28°C° 0 mm 8 mps 696 mmHg 48%
    04:00 +28°C° 0 mm 9 mps 696 mmHg 50%
    05:00 +28°C° 0 mm 9 mps 696 mmHg 51%
    06:00 +29°C° 0 mm 10 mps 696 mmHg 47%
    07:00 +31°C° 0 mm 10 mps 697 mmHg 43%
    08:00 +32°C° 0 mm 10 mps 697 mmHg 40%
    09:00 +34°C° 0 mm 9 mps 697 mmHg 36%
    10:00 +35°C° 0 mm 9 mps 698 mmHg 32%
    11:00 +38°C° 0 mm 8 mps 698 mmHg 28%
    12:00 +38°C° 0 mm 8 mps 697 mmHg 26%
    13:00 +39°C° 0 mm 7 mps 697 mmHg 24%
    14:00 +40°C° 0 mm 7 mps 696 mmHg 22%
    15:00 +40°C° 0 mm 6 mps 696 mmHg 22%
    16:00 +40°C° 0 mm 6 mps 695 mmHg 21%
    17:00 +40°C° 0 mm 6 mps 694 mmHg 21%
    18:00 +37°C° 0 mm 5 mps 694 mmHg 24%
    19:00 +34°C° 0 mm 4 mps 694 mmHg 28%
    20:00 +31°C° 0 mm 3 mps 695 mmHg 31%
    21:00 +32°C° 0 mm 4 mps 695 mmHg 31%
    22:00 +30°C° 0 mm 4 mps 695 mmHg 32%
    23:00 +30°C° 0 mm 4 mps 696 mmHg 32%

    24 January, Friday

    Time Temperature Precipitation Wind Pressure Humidity
    00:00 +30°C° 0 mm 5 mps 696 mmHg 33%
    01:00 +29°C° 0 mm 5 mps 696 mmHg 33%
    02:00 +29°C° 0 mm 5 mps 696 mmHg 34%
    03:00 +28°C° 0 mm 5 mps 696 mmHg 37%
    04:00 +28°C° 0 mm 6 mps 696 mmHg 41%
    05:00 +27°C° 0 mm 6 mps 697 mmHg 44%
    06:00 +28°C° 0 mm 6 mps 697 mmHg 43%
    07:00 +29°C° 0 mm 6 mps 698 mmHg 42%
    08:00 +30°C° 0 mm 7 mps 699 mmHg 42%
    09:00 +33°C° 0 mm 6 mps 699 mmHg 39%
    10:00 +34°C° 0 mm 6 mps 699 mmHg 36%
    11:00 +36°C° 0 mm 5 mps 699 mmHg 33%
    12:00 +36°C° 0 mm 5 mps 698 mmHg 31%
    13:00 +37°C° 0 mm 4 mps 698 mmHg 28%
    14:00 +38°C° 0 mm 4 mps 697 mmHg 26%
    15:00 +38°C° 0 mm 4 mps 697 mmHg 25%
    16:00 +38°C° 0 mm 3 mps 696 mmHg 24%
    17:00 +38°C° 0 mm 3 mps 696 mmHg 23%
    18:00 +36°C° 0 mm 3 mps 696 mmHg 27%
    19:00 +34°C° 0 mm 3 mps 696 mmHg 30%
    20:00 +31°C° 0 mm 2 mps 695 mmHg 34%
    21:00 +30°C° 0 mm 3 mps 696 mmHg 35%
    22:00 +29°C° 0 mm 3 mps 696 mmHg 36%
    23:00 +29°C° 0 mm 3 mps 696 mmHg 37%

    25 January, Saturday

    Time Temperature Precipitation Wind Pressure Humidity
    00:00 +28°C° 0 mm 4 mps 696 mmHg 36%
    01:00 +28°C° 0 mm 5 mps 696 mmHg 35%
    02:00 +27°C° 0 mm 5 mps 697 mmHg 34%
    03:00 +27°C° 0 mm 5 mps 697 mmHg 35%
    04:00 +26°C° 0 mm 5 mps 697 mmHg 37%
    05:00 +26°C° 0 mm 5 mps 697 mmHg 38%
    06:00 +28°C° 0 mm 5 mps 698 mmHg 35%
    07:00 +30°C° 0 mm 4 mps 698 mmHg 33%
    08:00 +32°C° 0 mm 4 mps 699 mmHg 31%
    09:00 +34°C° 0 mm 3 mps 699 mmHg 29%
    10:00 +35°C° 0 mm 3 mps 699 mmHg 27%
    11:00 +37°C° 0 mm 2 mps 699 mmHg 25%
    12:00 +37°C° 0 mm 2 mps 698 mmHg 24%
    13:00 +38°C° 0 mm 2 mps 698 mmHg 23%
    14:00 +38°C° 0 mm 2 mps 697 mmHg 23%
    15:00 +38°C° 0 mm 2 mps 697 mmHg 23%
    16:00 +38°C° 0 mm 3 mps 696 mmHg 24%
    17:00 +38°C° 0 mm 3 mps 696 mmHg 24%
    18:00 +36°C° 0 mm 4 mps 695 mmHg 27%
    19:00 +35°C° 0 mm 4 mps 695 mmHg 30%
    20:00 +33°C° 0 mm 5 mps 695 mmHg 34%
    21:00 +32°C° 0 mm 5 mps 695 mmHg 35%
    22:00 +30°C° 0 mm 5 mps 696 mmHg 36%
    23:00 +29°C° 0 mm 6 mps 696 mmHg 37%

    26 January, Sunday

    Time Temperature Precipitation Wind Pressure Humidity
    00:00 +28°C° 0 mm 5 mps 696 mmHg 39%
    01:00 +28°C° 0 mm 4 mps 695 mmHg 41%
    02:00 +27°C° 0 mm 4 mps 695 mmHg 43%
    03:00 +27°C° 0.1 mm 4 mps 695 mmHg 45%
    04:00 +26°C° 0.1 mm 4 mps 695 mmHg 46%
    05:00 +26°C° 0.1 mm 4 mps 695 mmHg 47%
    06:00 +28°C° 0.4 mm 4 mps 695 mmHg 45%
    07:00 +29°C° 0.4 mm 4 mps 696 mmHg 44%
    08:00 +30°C° 0.4 mm 4 mps 696 mmHg 43%
    09:00 +33°C° 0 mm 4 mps 697 mmHg 38%
    10:00 +35°C° 0 mm 4 mps 697 mmHg 34%
    11:00 +36°C° 0 mm 4 mps 697 mmHg 29%
    12:00 +36°C° 0.1 mm 4 mps 697 mmHg 29%
    13:00 +36°C° 0.1 mm 3 mps 696 mmHg 30%
    14:00 +36°C° 0.1 mm 2 mps 696 mmHg 30%
    15:00 +33°C° 1.9 mm 4 mps 695 mmHg 41%
    16:00 +29°C° 1.9 mm 6 mps 694 mmHg 53%
    17:00 +26°C° 1.9 mm 7 mps 693 mmHg 64%
    18:00 +26°C° 0.7 mm 7 mps 693 mmHg 62%
    19:00 +26°C° 0.7 mm 6 mps 694 mmHg 60%
    20:00 +25°C° 0.7 mm 5 mps 694 mmHg 59%
    21:00 +26°C° 0 mm 5 mps 695 mmHg 55%
    22:00 +26°C° 0 mm 5 mps 695 mmHg 52%
    23:00 +26°C° 0 mm 4 mps 696 mmHg 49%
    Show more